Location: Nairn
(57.5833°N, 3.8667°W)
Time: 00:26:39
(UTC+00:00)

CZ-2D R/B - Pass Details

Date: 07 August 2020
Orbit: 792 x 845 km, 98.7° (Epoch: 19 September)

Event Time Altitude Azimuth Distance (km) Brightness Sun altitude
Rises 00:26:57 0° 23° (NNE) 3,409 6.7 -16.1°
Reaches altitude 10° 00:30:10 10° 43° (NE) 2,475 5.3 -16.1°
Maximum altitude 00:33:47 18° 84° (E) 1,988 4.2 -16.0°
Drops below altitude 10° 00:37:23 10° 126° (SE) 2,469 4.3 -16.0°
Enters shadow 00:38:04 - 131° (SE) 2,646 4.4 -16.0°
